Regional Weather Roundup
Issued by NWS

Home | Current Version | Previous Version | Graphics & Text | Print | Product List | Glossary On
Versions: 1 2 3 4 5 6 7 8 9 10 11 12 13 14 15 16 17 18 19 20 21 22 23 24 25 26 27 28 29 30 31 32 33 34 35 36 37 38 39 40 41 42 43 44 45 46 47 48 49 50
000
ASUS43 KOAX 292110
RWRNE

WEATHER ROUNDUP FOR NEBRASKA
NATIONAL WEATHER SERVICE OMAHA NE
400 PM CDT WED MAR 29 2017

NOTES: SATELLITE DATA IS BEING USED TO AUGMENT CLOUD COVER ABOVE
       12000 FEET.
       "FAIR" INDICATES FEW OR NO CLOUDS BELOW 12,000 FEET WITH NO
       SIGNIFICANT WEATHER AND/OR OBSTRUCTIONS TO VISIBILITY.

  * THESE STATIONS DO NOT REPORT WEATHER SUCH AS RAIN...SNOW OR FOG.

NEZ001>004-019>022-054>056-292200-
NEBRASKA PANHANDLE

CITY           SKY/WX    TMP DP  RH WIND       PRES   REMARKS
SCOTTSBLUFF    PTSUNNY   55  36  48 N15       29.98F
ALLIANCE       CLOUDY    50  39  66 N13       29.98F
CHADRON        CLOUDY    55  38  52 N8        29.98F
KIMBALL        CLOUDY    51  38  60 N15G21    29.98F
SIDNEY         CLOUDY    48  37  65 N20       29.98F
$$

NEZ057>060-069>072-079>082-292200-
SOUTHWEST NEBRASKA

CITY           SKY/WX    TMP DP  RH WIND       PRES   REMARKS
NORTH PLATTE   CLOUDY    49  39  68 N23G29    29.93F
IMPERIAL       CLOUDY    46  39  76 N17       29.95F
LEXINGTON      LGT RAIN  44  40  86 NE21      29.90F
MCCOOK         LGT RAIN  45  42  89 N21G29    29.90F
OGALLALA       CLOUDY    49  40  71 N14       29.97F
$$

NEZ005>010-023>029-035>040-094-292200-
NORTH CENTRAL NEBRASKA

CITY           SKY/WX    TMP DP  RH WIND       PRES   REMARKS
VALENTINE      CLOUDY    51  38  60 NE15      29.99F
AINSWORTH      CLOUDY    47  41  78 NE15G21   29.99F
BROKEN BOW     LGT RAIN  43  39  86 N14G24    29.92F
O`NEILL        CLOUDY    44  41  88 NE14G22   30.00F
ORD            LGT RAIN  43  39  86 NE17G24   29.92F FOG
THEDFORD       CLOUDY    48  41  76 NE16G22   29.98S
$$

NEZ041-046>049-061>064-073>077-083>087-292200-
SOUTH CENTRAL NEBRASKA

CITY           SKY/WX    TMP DP  RH WIND       PRES   REMARKS
GRAND ISLAND   LGT RAIN  43  42  97 NE20G29   29.87F
AURORA         LGT RAIN  44  43  99 NE22      29.85F
HASTINGS       LGT RAIN  43  40  89 NE21      29.85F
HEBRON         LGT RAIN  44  42  93 NE21G30   29.79F
HOLDREGE       LGT RAIN  41  38  91 N26       29.87S
KEARNEY *      CLOUDY    41  36  81 N23G30    29.89S
YORK           LGT RAIN  45  45 100 NE23G32   29.85S
$$

NEZ011>018-030>034-042>045-292200-
NORTHEAST NEBRASKA

CITY           SKY/WX    TMP DP  RH WIND       PRES   REMARKS
NORFOLK        LGT RAIN  43  39  86 NE22G31   29.91F
ALBION         LGT RAIN  44  40  87 NE20G25   29.91F
BLAIR          LGT RAIN  42  40  95 NE21G30   29.87F
FREMONT        LGT RAIN  43  41  95 NE17G25   29.90F
TEKAMAH        LGT RAIN  43  40  89 NE20      29.92F FOG
WAYNE          LGT RAIN  43  42  99 NE24      29.94F
$$

NEZ050>053-065>068-078-088>093-292200-
SOUTHEAST NEBRASKA

CITY           SKY/WX    TMP DP  RH WIND       PRES   REMARKS
LINCOLN        LGT RAIN  44  41  89 NE23G29   29.85F FOG
OMAHA EPPLEY   RAIN      43  38  82 N17       29.89F
BEATRICE       LGT RAIN  43  42  98 NE23G36   29.78F
FALLS CITY     LGT RAIN  47  46  97 NE12      29.74S FOG
NEBRASKA CITY  LGT RAIN  42  42 100 NE18G26   29.80S
PLATTSMOUTH    LGT RAIN  42  39  90 N14G23    29.83F
$$

NEZ044-045-051>053-067-292200-
OMAHA AREA

CITY           SKY/WX    TMP DP  RH WIND       PRES   REMARKS
OMAHA EPPLEY   RAIN      43  38  82 N17       29.89F
BLAIR          LGT RAIN  42  40  95 NE21G30   29.87F
FREMONT        LGT RAIN  43  41  95 NE17G25   29.90F
MILLARD        LGT RAIN  44  41  89 NE9G22    29.88F
OFFUTT AFB     LGT RAIN  43  41  93 NE17G26   29.85F FOG
PLATTSMOUTH    LGT RAIN  42  39  90 N14G23    29.83F
WAHOO          DRIZZLE   43  41  92 NE25      29.88S
$$




USA.gov is the U.S. government's official web portal to all federal, state and local government web resources and services.